This is the latest recevied weather packets stored in our database for station/object KC5CAM-13. If no packets are shown the sender has not sent any weather packets the latest 10 day(s).
| Time | Temp. | Humidity | Pressure | Rain* | Wind** | Luminosity | Snow |
|---|---|---|---|---|---|---|---|
| 1777090629 | 20.56° C | 84% | 1007.3 hPa | 0 mm | - | 0 W/m² | - |
| 1777090325 | 20.56° C | 84% | 1007.1 hPa | 0 mm | - | 0 W/m² | - |
| 1777090022 | 20.56° C | 84% | 1006.7 hPa | 0 mm | - | 0 W/m² | - |
| 1777089716 | 20.56° C | 84% | 1006.9 hPa | 0 mm | - | 0 W/m² | - |
| 1777089411 | 20.56° C | 84% | 1006.9 hPa | 0 mm | - | 0 W/m² | - |
| 1777089107 | 21.11° C | 84% | 1006.9 hPa | 0 mm | - | 0 W/m² | - |
| 1777088802 | 21.11° C | 83% | 1006.8 hPa | 0 mm | - | 0 W/m² | - |
| 1777088499 | 21.67° C | 83% | 1006.7 hPa | 0 mm | - | 0 W/m² | - |
| 1777088197 | 21.67° C | 82% | 1006.8 hPa | 0 mm | - | 0 W/m² | - |
| 1777087893 | 21.67° C | 81% | 1006.5 hPa | 0 mm | - | 0 W/m² | - |
| 1777087592 | 22.22° C | 81% | 1006.2 hPa | 0 mm | - | 0 W/m² | - |
| 1777087292 | 22.22° C | 80% | 1006.2 hPa | 0 mm | - | 0 W/m² | - |
| 1777086987 | 22.22° C | 80% | 1006.1 hPa | 0 mm | - | 0 W/m² | - |
| 1777086682 | 22.78° C | 79% | 1006.3 hPa | 0 mm | - | 0 W/m² | - |
| 1777086378 | 22.78° C | 79% | 1006 hPa | 0 mm | - | 0 W/m² | - |
| 1777086074 | 22.78° C | 77% | 1006.1 hPa | 0 mm | - | 0 W/m² | - |
| 1777085770 | 23.33° C | 75% | 1006.2 hPa | 0 mm | - | 0 W/m² | - |
| 1777085466 | 23.89° C | 73% | 1006.1 hPa | 0 mm | - | 0 W/m² | - |
| 1777085163 | 23.33° C | 72% | 1005.9 hPa | 0 mm | - | 0 W/m² | - |
| 1777084858 | 22.22° C | 75% | 1006.2 hPa | 0 mm | - | 0 W/m² | - |
| 1777084554 | 22.22° C | 76% | 1006 hPa | 0 mm | - | 0 W/m² | - |
| 1777084250 | 22.22° C | 75% | 1005.9 hPa | 0 mm | - | 0 W/m² | - |
| 1777083945 | 22.22° C | 75% | 1005.8 hPa | 0 mm | - | 0 W/m² | - |
| 1777083642 | 22.78° C | 74% | 1006 hPa | 0 mm | - | 0 W/m² | - |
| 1777083338 | 22.78° C | 74% | 1005.8 hPa | 0 mm | - | 0 W/m² | - |
* Rain latest hour (hover to see other rain measurements)
** Current wind speed in m/s (hover to see current wind gust speed)